This demonstration page uses our WeatherBlox Daily Observations layout. Learn more.

Left ArrowRight Arrow

Hourly Observations for March 20, 2018

Temp ( °F °C ) Dew Point ( °F °C ) Humidity (%) Winds ( mph kmh ) Pressure ( in mb ) Visibility ( mi km ) Precip ( " mm )
12:53 am 00:53 Cloudy 34 1.1 34 1.1 100 100 NNW 14 22 30.06 1018 10 16 0.00 0.03
1:53 am 01:53 Cloudy 34 1.1 33 0.6 97 97 NNW 13 20 30.06 1018 10 16 0.00 0.00
2:17 am 02:17 Cloudy 34 1 34 1 100 100 NNW 13 20 30.12 1020 10 16 0.00 0.00
2:34 am 02:34 Cloudy 34 1 34 1 100 100 NNW 14 22 30.12 1020 10 16 0.00 0.00
2:53 am 02:53 Cloudy 34 1.1 33 0.6 97 97 NNW 12 19 30.06 1018 10 16 0.00 0.00
3:53 am 03:53 Cloudy 33 0.6 32 0 96 96 NNW 16 26 30.05 1018 10 16 0.00 0.00
4:04 am 04:04 Cloudy 34 1 32 0 93 93 NNW 15 24 30.09 1019 10 16 0.00 0.00
4:24 am 04:24 Cloudy 34 1 32 0 93 93 NNW 14 22 30.09 1019 10 16 0.00 0.00
4:53 am 04:53 Cloudy 33 0.6 32 0 96 96 NNW 14 22 30.05 1018 10 16 0.00 0.00
5:13 am 05:13 Cloudy 33 0.6 31 -0.6 92 92 NNW 14 22 30.09 1019 10 16 0.00 0.00
5:53 am 05:53 Cloudy 32 0 32 0 100 100 NNW 12 19 30.06 1018 10 16 0.00 0.00
6:39 am 06:39 Cloudy 32 0 31 -0.6 96 96 NW 13 20 30.09 1019 9 14 0.00 0.00
6:53 am 06:53 Cloudy 32 0 31 -0.6 96 96 NNW 15 24 30.05 1018 9 14 0.00 0.00
7:24 am 07:24 Cloudy 32 0 30 -1 93 93 NNW 10 17 30.09 1019 8 13 0.00 0.00
7:43 am 07:43 Cloudy 32 0 30 -1.1 92 92 NW 12 19 30.09 1019 7 11 0.00 0.00
7:53 am 07:53 Cloudy with Mist and Fog 32 0 30 -1.1 92 92 NW 10 17 30.07 1018 6 10 0.00 0.00
8:32 am 08:32 Cloudy 32 0 30 -1 93 93 NW 13 20 30.12 1020 7 11 0.00 0.00
8:53 am 08:53 Cloudy 32 0 30 -1.1 92 92 WNW 10 17 30.08 1019 8 13 0.00 0.00
9:53 am 09:53 Cloudy 34 1.1 30 -1.1 85 85 NW 13 20 30.08 1019 8 13 0.00 0.00
10:53 am 10:53 Cloudy 34 1.1 30 -1.1 85 85 NW 14 22 30.09 1019 8 13 0.00 0.00
11:53 am 11:53 Cloudy 35 1.7 29 -1.7 78 78 NW 14 22 30.08 1019 9 14 0.00 0.00
12:53 pm 12:53 Cloudy 35 1.7 28 -2.2 76 76 NNW 13 20 30.07 1018 10 16 0.00 0.00
1:53 pm 13:53 Cloudy 36 2.2 29 -1.7 76 76 NW 14 22 30.06 1018 10 16 0.00 0.00
2:53 pm 14:53 Cloudy 37 2.8 29 -1.7 73 73 NNW 14 22 30.04 1017 10 16 0.00 0.00
3:53 pm 15:53 Cloudy 39 3.9 29 -1.7 67 67 NW 15 24 30.04 1017 10 16 0.00 0.00
4:53 pm 16:53 Mostly Cloudy 41 5 29 -1.7 62 62 NNW 10 17 30.03 1017 10 16 0.00 0.00
5:04 pm 17:04 Partly Cloudy 41 5 28 -2 61 61 NNW 12 19 30.06 1018 10 16 0.00 0.00
5:53 pm 17:53 Sunny 42 5.6 30 -1.1 62 62 N 8 13 30.02 1017 10 16 0.00 0.00
6:53 pm 18:53 Sunny 41 5 30 -1.1 65 65 N 7 11 30.04 1017 10 16 0.00 0.00
7:53 pm 19:53 Mostly Clear 38 3.3 31 -0.6 76 76 NE 3 6 30.05 1018 10 16 0.00 0.00
8:53 pm 20:53 Mostly Cloudy 36 2.2 31 -0.6 82 82 Calm 30.06 1018 10 16 0.00 0.00
9:53 pm 21:53 Clear 33 0.6 29 -1.7 85 85 Calm 30.08 1019 10 16 0.00 0.00
10:53 pm 22:53 Clear 30 -1.1 28 -2.2 92 92 NE 3 6 30.10 1019 10 16 0.00 0.00
11:53 pm 23:53 Clear 28 -2.2 26 -3.3 92 92 Calm 30.12 1020 10 16 0.00 0.00

Powered by AerisWeather